DW7780 Weather Reports


time (UTC)temp
F
wind
direction
speed
knots
gust
knots
rain 1hr
in
rain 24hr
in
rain mn
in
humidity
%
barometer
mb
20260902164536 69 0 0.0 0.0 0.00 0.17 0.01 96 1020.4
20260902163036 69 0 0.0 2.6 0.00 0.17 0.01 96 1020.4
20260902161532 69 0 0.9 4.3 0.00 0.17 0.01 96 1020.2
20260902160032 69 86 0.9 6.1 0.00 0.17 0.01 96 1019.9
20260902154532 69 111 0.9 7.0 0.00 0.17 0.01 97 1019.9
20260902153044 69 128 0.9 7.0 0.00 0.17 0.01 96 1020.1
20260902151534 69 110 1.7 6.1 0.00 0.17 0.01 96 1020.1
20260902150033 68 0 0.0 2.6 0.00 0.17 0.01 97 1020.1
20260902144532 68 0 0.9 4.3 0.00 0.17 0.01 97 1020.3
20260902143035 68 0 0.0 5.2 0.00 0.17 0.01 97 1020.2
20260902141531 68 0 0.9 5.2 0.00 0.17 0.01 97 1019.7
20260902140031 68 90 0.9 6.1 0.00 0.17 0.01 97 1019.9
20260902134541 68 58 0.9 7.0 0.00 0.17 0.01 97 1019.9
20260902133035 67 82 0.0 3.5 0.00 0.17 0.01 97 1019.9
20260902131540 67 0 0.9 5.2 0.00 0.17 0.01 97 1019.5
20260902130038 67 90 0.9 4.3 0.00 0.17 0.01 97 1019.5
20260902124531 67 0 0.0 4.3 0.00 0.17 0.01 97 1019.6
20260902123034 67 0 0.0 7.0 0.00 0.17 0.01 97 1019.5
20260902121534 67 0 0.0 1.7 0.00 0.17 0.01 97 1019.3
20260902120034 67 0 0.0 4.3 0.00 0.17 0.01 97 1019.3
20260902114536 67 0 0.0 2.6 0.00 0.17 0.01 97 1019.2
20260902113036 67 0 0.0 4.3 0.00 0.17 0.01 97 1019.2
20260902111535 67 76 0.0 4.3 0.01 0.17 0.01 97 1019.2
20260902110040 67 0 0.0 2.6 0.01 0.17 0.01 97 1019.2
20260902104531 67 0 0.0 3.5 0.01 0.17 0.01 97 1018.9
20260902103032 67 66 0.9 6.1 0.01 0.17 0.01 97 1018.7
20260902101536 67 83 0.0 4.3 0.00 0.16 0.00 97 1018.9
20260902100033 68 96 0.0 3.5 0.00 0.16 0.00 97 1018.8
20260902094533 68 0 0.0 4.3 0.00 0.17 0.00 97 1018.7
20260902093037 68 80 1.7 6.1 0.00 0.17 0.00 97 1018.6
20260902091532 68 0 0.0 2.6 0.00 0.17 0.00 97 1018.5
20260902090031 68 90 0.9 6.1 0.00 0.17 0.00 97 1018.4
20260902084531 68 86 0.0 5.2 0.00 0.17 0.00 97 1018.2
20260902083031 68 117 0.9 7.0 0.00 0.17 0.00 97 1017.9
20260902081530 68 0 0.0 6.1 0.00 0.17 0.00 97 1017.9
20260902080034 69 0 0.9 6.1 0.00 0.17 0.00 97 1017.8
20260902074536 69 74 1.7 9.6 0.00 0.17 0.00 97 1017.6
20260902073032 69 0 0.0 5.2 0.00 0.17 0.00 97 1017.6
20260902071534 69 0 0.9 6.1 0.00 0.17 0.00 97 1017.4
20260902070033 69 0 0.0 3.5 0.00 0.17 0.00 97 1017.6
20260902064537 70 0 0.0 3.5 0.00 0.17 0.00 97 1017.4
20260902063035 70 0 0.0 3.5 0.00 0.17 0.00 97 1017.4
20260902061551 70 86 0.0 6.1 0.00 0.17 0.00 97 1017.2
20260902060040 71 0 0.0 7.0 0.00 0.17 0.00 97 1017.2
20260902054533 71 0 0.0 3.5 0.00 0.17 0.00 97 1017.3
20260902053032 71 74 0.0 6.1 0.00 0.17 0.00 97 1017.1
20260902051532 71 82 0.0 5.2 0.00 0.17 0.00 97 1017.3
20260902050034 71 88 1.7 7.8 0.00 0.17 0.00 97 1017.5
20260902044537 71 0 0.0 0.0 0.00 0.17 0.00 97 1017.6
20260902043032 72 0 0.0 0.0 0.00 0.17 0.00 97 1017.4
20260902041537 72 0 0.0 0.0 0.00 0.17 0.00 97 1017.5
20260902040038 72 0 0.0 0.0 0.00 0.17 0.00 97 1017.3
20260902034537 72 0 0.0 0.0 0.00 0.17 0.17 97 1017.2
20260902033032 72 0 0.0 0.0 0.00 0.17 0.17 97 1016.7
20260902031542 72 0 0.0 0.0 0.00 0.17 0.17 97 1016.6
20260902030033 73 0 0.0 0.0 0.00 0.17 0.17 96 1016.6
20260902024538 73 0 0.0 3.5 0.00 0.17 0.17 97 1016.4
20260902023031 73 102 0.9 7.0 0.00 0.17 0.17 97 1016.2
20260902021533 73 0 0.0 1.7 0.00 0.17 0.17 97 1016.0
20260902020037 73 0 0.0 0.0 0.00 0.17 0.17 97 1016.0
20260902014534 72 0 0.0 0.0 0.00 0.17 0.17 96 1015.4
20260902013032 72 0 0.0 0.9 0.02 0.17 0.17 95 1014.7
20260902011534 73 0 0.0 3.5 0.16 0.17 0.17 94 1014.5
20260902010035 73 0 0.0 3.5 0.16 0.17 0.17 93 1014.3
20260902004533 73 0 0.0 2.6 0.16 0.17 0.17 91 1014.1
20260902003038 76 242 0.0 11.3 0.13 0.14 0.14 89 1013.7
20260902001540 78 0 0.0 0.0 0.00 0.01 0.01 93 1013.5
20260902000037 78 0 0.0 0.0 0.00 0.01 0.01 92 1013.1
20260901234533 78 0 0.0 0.0 0.00 0.01 0.01 91 1013.4
20260901233035 78 0 0.0 0.0 0.00 0.01 0.01 91 1013.4
20260901231531 79 0 0.0 0.0 0.00 0.01 0.01 90 1012.9
20260901230033 79 0 0.0 0.0 0.00 0.01 0.01 89 1013.5
20260901224531 80 0 0.0 0.0 0.00 0.01 0.01 89 1013.1
20260901223032 81 0 0.0 0.0 0.00 0.01 0.01 87 1013.1
20260901221544 81 0 0.0 0.0 0.00 0.01 0.01 86 1013.1
20260901220031 82 0 0.0 0.0 0.00 0.01 0.01 86 1013.0
20260901214533 83 0 0.0 0.0 0.00 0.01 0.01 84 1013.4
20260901213032 84 0 0.0 0.0 0.00 0.01 0.01 83 1013.5
20260901211533 84 0 0.0 0.0 0.00 0.01 0.01 83 1013.2
20260901210031 85 0 0.0 1.7 0.00 0.01 0.01 81 1013.2
20260901204530 87 0 0.0 3.5 0.00 0.01 0.01 74 1013.4
20260901203031 86 0 0.0 0.0 0.00 0.01 0.01 75 1013.5
20260901201531 85 0 0.0 1.7 0.00 0.01 0.01 75 1013.5
20260901200038 85 0 0.0 0.0 0.00 0.01 0.01 76 1013.4
20260901194532 86 0 0.0 3.5 0.00 0.01 0.01 74 1013.8
20260901193034 86 0 0.0 5.2 0.00 0.01 0.01 72 1013.8
20260901191551 85 0 0.0 0.0 0.00 0.01 0.01 73 1013.8
20260901190034 85 0 0.0 3.5 0.00 0.01 0.01 75 1013.9
20260901184539 85 0 0.0 0.0 0.00 0.01 0.01 76 1014.1
20260901183045 84 0 0.0 0.0 0.00 0.01 0.01 76 1014.1
20260901181534 83 0 0.0 0.0 0.00 0.01 0.01 77 1014.2
20260901180031 83 0 0.0 0.0 0.00 0.01 0.01 78 1014.4
20260901174534 82 0 0.0 0.0 0.00 0.01 0.01 77 1014.4
20260901173031 81 0 0.0 0.0 0.00 0.01 0.01 82 1014.4
20260901171533 80 0 0.0 0.0 0.00 0.01 0.01 84 1014.6
20260901170035 79 0 0.0 0.0 0.00 0.01 0.01 85 1014.9